Temperature
17 17 17 17 17 18 18 18 18 18 18 18 17 17 17 17 17 17 17 17 16 16 16 16 16 16 16 16 16 16 15 15 15 15 15 15 15 15 15 15 15 15 15
17 17 17 17 17 17 17 18 18 18 18 17 17 17 17 17 17 17 17 16 16 16 16 16 16 16 16 16 16 16 16 15 15 15 15 15 15 15 15 15 15 15 15
17 17 17 17 17 17 17 17 17 17 17 17 17 17 17 17 17 16 16 16 16 16 16 16 16 16 16 16 16 16 16 15 15 15 15 15 15 15 15 15 15 15 14
17 17 17 17 17 17 17 17 17 17 17 17 17 17 17 16 16 16 16 16 16 16 16 16 16 16 16 16 16 16 15 15 15 15 15 15 15 15 15 15 15 15 14
17 16 16 17 17 17 17 17 17 17 17 17 17 16 16 16 16 16 16 16 16 16 16 16 16 16 16 16 16 15 15 15 15 15 15 15 15 15 15 15 15 15 15
16 16 16 16 17 17 17 17 17 17 17 17 16 16 16 16 16 16 16 16 16 16 16 16 16 16 16 16 15 15 15 15 15 15 15 15 15 15 14 14 14 15 15
16 16 16 16 16 16 16 16 16 16 17 16 16 16 16 16 16 16 16 16 16 16 16 16 16 16 16 15 15 15 15 15 15 15 15 14 14 14 14 14 14 15 15
16 16 16 16 16 16 16 16 16 16 16 16 16 16 16 16 16 16 16 16 16 16 16 16 16 15 15 15 15 15 15 15 15 15 14 14 14 14 14 14 14 14 15
16 16 16 16 16 16 16 16 16 16 16 16 16 16 16 16 16 16 16 16 15 15 15 15 15 15 15 15 15 15 15 15 15 14 14 14 14 14 14 14 14 14 14
15 15 15 15 15 15 15 16 16 16 16 15 15 15 15 15 15 15 15 15 15 15 15 15 15 15 15 15 15 15 15 15 14 14 14 14 14 14 14 14 14 14 14
15 15 15 15 15 15 15 15 15 15 15 15 15 15 15 15 15 15 15 15 15 15 15 15 15 15 15 15 15 15 15 14 14 14 14 14 14 14 14 14 14 14 14
15 15 15 15 15 15 15 15 15 15 15 15 15 15 15 15 15 15 15 15 15 15 15 15 15 15 15 15 15 14 14 14 14 14 14 14 14 14 14 14 14 14 14
14 14 14 15 15 15 14 15 15 14 14 15 15 15 15 14 14 14 14 14 14 15 15 15 15 15 15 15 14 14 14 14 14 14 14 14 14 14 14 14 14 14 14
14 14 14 14 14 14 14 14 14 14 14 14 14 14 14 14 14 14 14 14 14 14 14 14 14 14 14 14 14 14 14 14 14 14 14 14 14 14 14 14 14 14 14
14 14 14 14 14 14 14 14 14 14 14 14 14 14 14 14 14 14 14 14 14 14 14 14 14 14 14 14 14 14 14 14 14 14 14 13 13 13 13 13 13 13 13
13 14 14 13 14 13 13 13 14 14 14 14 14 14 14 13 13 13 13 13 13 13 13 14 14 14 14 14 14 14 14 14 14 13 13 13 13 13 13 13 13 13 13
13 13 13 13 13 13 13 13 13 13 13 13 13 13 13 13 13 13 13 13 13 13 13 13 13 13 13 13 13 13 13 13 13 13 13 13 13 13 13 13 13 13 13
13 13 13 13 13 13 13 12 13 13 13 13 13 13 13 12 12 13 13 13 13 13 13 13 13 13 13 13 13 13 13 13 13 13 13 13 13 13 13 13 13 13 12
12 12 12 12 12 12 12 12 12 12 12 12 12 12 12 12 12 12 12 12 12 12 12 12 12 12 12 12 12 13 13 13 13 13 13 12 12 12 12 12 12 12 12
12 12 12 12 12 12 12 12 12 12 12 12 12 12 12 12 12 12 12 12 12 12 12 12 12 12 12 12 12 12 12 12 12 12 12 12 12 12 12 12 12 12 12
12 12 12 12 12 12 12 12 11 11 11 11 11 11 11 11 11 11 11 11 12 12 12 12 11 12 12 12 12 12 12 12 12 12 12 12 12 12 11 11 11 11 11
12 12 12 11 11 11 11 11 11 11 11 11 11 11 11 11 11 11 11 11 11 11 11 11 11 11 11 11 11 11 11 11 11 12 11 11 11 11 11 11 11 11 11
12 12 11 11 11 11 11 11 11 10 10 10 10 10 11 10 10 11 11 10 11 11 11 11 11 11 11 11 10 10 10 10 11 11 11 11 11 11 11 10 10 10 10
12 11 11 11 11 11 11 11 10 10 10 10 10 10 10 10 10 10 10 10 10 10 10 10 10 10 10 10 10 10 10 10 10 10 10 10 10 10 10 10 10 10 10
11 11 11 11 10 10 10 10 10 10 10 10 10 10 10 10 10 10 10 10 10 10 10 10 10 10 9 9 9 9 9 9 9 9 9 10 10 10 10 10 9 10 9
11 11 11 10 10 10 10 10 10 10 10 10 9 9 9 9 9 9 9 9 9 9 9 9 9 9 9 9 9 9 9 9 9 9 9 9 9 9 9 9 9 9 9
Wind_Speed
5 8 14 15 15 15 15 15 15 14 13 13 13 13 13 13 13 13 12 12 12 12 11 11 11 12 12 13 13 13 13 13 13 13 12 12 12 12 12 12 11 11 12
8 11 15 16 16 15 14 15 14 14 13 13 13 12 12 12 12 11 11 11 11 10 10 10 10 11 11 11 11 11 12 12 12 11 11 11 11 11 11 11 10 10 11
10 12 14 15 15 15 14 14 14 13 12 12 12 12 11 11 10 10 10 10 10 10 9 9 9 10 10 10 10 9 10 10 9 8 8 8 9 10 10 10 10 10 9
11 11 13 15 15 15 14 14 13 13 12 12 11 11 11 10 9 9 9 9 9 9 9 9 8 8 9 9 8 8 7 7 7 6 5 5 6 8 9 9 9 8 8
10 10 13 15 15 14 14 14 13 12 11 11 10 10 10 9 9 9 9 9 8 8 8 8 8 8 8 7 7 6 5 5 5 5 6 5 5 7 7 8 7 7 7
8 9 12 14 14 14 14 13 12 12 11 11 10 9 9 8 8 8 8 8 8 8 8 8 8 8 7 6 6 5 4 4 5 6 6 6 6 6 7 7 7 6 6
8 8 11 13 12 13 13 12 12 11 11 10 10 9 9 8 7 7 7 8 8 8 8 8 8 7 7 6 5 4 3 3 5 5 5 5 6 7 7 6 6 5 5
8 8 9 10 11 11 11 11 11 11 10 10 9 9 8 8 7 7 7 7 7 7 7 8 8 8 7 6 6 4 3 3 4 4 5 6 7 7 6 6 5 4 4
8 7 7 8 8 9 9 10 10 10 10 9 8 8 8 7 7 7 6 6 7 7 7 7 8 8 8 7 6 5 5 4 5 4 5 6 7 7 6 6 5 5 4
6 6 5 6 6 6 7 8 8 9 9 8 8 7 7 7 6 6 6 6 6 6 6 7 7 8 8 8 7 7 6 5 5 6 6 7 8 7 7 7 6 5 4
5 4 5 5 5 4 4 7 7 7 8 7 7 7 7 6 6 5 5 5 6 6 6 7 7 7 7 8 8 8 7 5 5 6 7 8 9 8 8 7 7 6 5
5 3 3 4 4 4 2 4 4 5 5 5 6 6 5 5 5 5 5 5 5 5 5 6 7 7 7 6 7 7 6 6 6 7 9 10 11 10 9 8 8 7 6
4 4 3 3 4 3 2 3 3 3 3 4 5 5 4 4 4 3 3 4 4 4 3 4 4 5 5 5 5 6 7 6 7 8 10 11 11 11 10 9 9 8 8
4 3 3 3 3 3 2 2 2 2 2 2 3 4 4 2 2 3 3 3 4 4 3 3 3 4 5 6 7 6 7 7 7 9 10 12 12 12 11 10 10 9 8
4 3 2 3 3 3 2 2 2 1 1 1 2 3 4 3 2 2 2 3 3 4 4 3 3 4 4 5 6 6 6 7 8 9 10 12 13 13 13 12 11 10 9
3 2 2 3 3 3 2 2 1 1 1 1 1 2 3 3 3 2 2 2 3 4 4 4 4 3 3 3 4 5 5 5 7 9 10 12 13 14 13 12 12 11 10
3 2 2 2 3 3 2 1 1 1 1 1 0 1 2 3 3 2 2 2 2 3 3 3 3 3 3 3 4 4 4 4 5 7 9 10 10 12 13 13 12 12 11
3 3 2 2 3 3 2 1 1 1 1 0 0 0 1 2 2 2 1 1 2 2 2 2 2 2 3 3 3 4 3 3 5 6 6 7 8 9 11 12 12 12 11
3 3 2 2 2 3 2 2 1 1 1 1 1 0 0 0 1 2 1 1 1 1 1 2 2 2 2 3 3 3 3 3 4 4 5 6 7 7 7 8 10 10 10
3 3 3 2 2 2 2 2 2 2 1 1 1 1 0 0 0 1 1 1 1 1 1 1 2 2 2 2 2 2 3 3 3 3 4 4 5 6 6 6 6 7 8
3 3 2 2 1 1 1 1 1 0 1 1 1 1 1 0 0 1 1 1 1 1 2 2 2 2 2 0 0 1 3 2 2 3 2 3 3 4 5 6 5 5 6
3 3 3 2 1 1 1 1 1 1 1 1 1 2 2 1 1 0 1 1 1 1 2 2 2 1 1 1 1 1 2 3 2 2 2 3 3 3 3 5 5 6 6
4 4 3 3 2 1 1 2 1 1 1 1 1 1 2 2 2 1 1 1 2 2 2 3 3 3 3 2 2 2 2 3 2 2 2 2 2 2 2 3 5 6 6
5 4 3 3 2 2 2 2 2 1 1 2 1 2 2 3 2 2 2 1 2 2 2 3 3 3 3 3 2 2 2 2 2 2 2 1 2 2 3 2 3 4 5
5 4 3 3 2 2 2 2 2 1 2 1 1 2 2 3 3 3 2 2 2 2 3 3 2 3 3 4 3 2 2 1 2 2 3 2 2 2 2 3 2 3 3
3 3 3 3 3 3 3 2 3 3 3 2 2 2 3 2 2 3 2 2 2 2 3 3 3 3 4 4 4 3 3 2 3 3 3 3 3 2 2 2 2 2 2
Wind_Direction
167 160 153 148 146 142 138 135 131 128 126 123 121 119 120 123 125 125 124 124 123 121 119 115 112 110 109 108 106 106 105 102 99 94 90 90 92 93 91 87 82 79 80
158 158 153 149 146 143 140 137 134 132 130 130 128 125 123 126 130 131 133 132 130 128 125 120 118 116 115 113 112 112 111 107 104 98 92 89 93 96 95 91 90 87 82
145 154 152 150 147 144 142 140 137 135 135 134 133 131 130 130 134 138 140 142 139 136 131 127 124 123 122 121 118 117 117 114 109 103 101 99 98 99 98 95 91 88 82
145 151 152 149 150 146 143 143 142 141 141 139 138 138 137 136 137 139 141 145 145 142 140 138 134 132 132 131 128 124 122 119 115 107 112 122 114 110 105 100 94 90 84
138 148 151 149 151 149 146 145 146 145 146 147 145 145 144 144 145 146 146 147 148 149 150 148 148 146 144 143 138 134 130 121 113 112 122 129 131 125 115 108 102 96 89
135 140 147 148 149 150 148 148 149 148 148 151 151 150 151 152 153 152 153 154 155 156 158 159 160 160 157 156 154 149 143 132 118 120 130 137 142 137 125 115 108 101 94
134 139 143 144 145 150 151 151 152 152 151 151 153 153 155 156 156 157 161 165 165 166 167 168 167 169 171 171 174 172 161 149 137 133 143 149 155 148 138 129 120 113 106
132 135 138 138 141 145 151 154 155 156 155 155 156 158 158 158 157 156 161 169 174 176 178 178 180 181 184 187 191 195 189 169 160 150 158 164 167 162 153 146 138 134 125
121 121 122 130 133 141 148 150 155 155 157 158 157 158 161 162 165 166 168 174 181 183 185 188 191 194 198 203 205 208 210 198 180 179 176 177 179 173 168 162 158 153 147
112 115 114 114 116 124 144 152 151 156 159 159 158 158 161 164 166 171 176 183 187 191 194 198 201 204 209 215 219 219 219 209 197 196 189 191 189 185 181 177 177 176 176
117 119 112 103 102 102 132 151 147 150 157 155 153 153 150 155 160 170 179 183 190 197 204 209 212 214 217 224 228 227 222 213 203 199 198 197 198 196 191 189 191 195 198
138 136 121 113 111 101 107 128 137 143 145 148 152 154 156 160 166 172 179 184 193 202 211 219 223 224 225 231 239 235 224 216 208 208 206 203 203 202 199 197 201 207 211
143 129 120 120 113 106 92 112 110 118 134 147 156 163 162 157 163 167 173 184 191 200 210 226 228 228 227 231 239 238 231 219 210 212 212 206 207 208 208 206 207 215 218
123 124 121 125 121 110 106 119 119 108 123 141 165 168 160 155 166 174 180 191 192 200 207 217 228 238 236 238 238 240 235 224 214 210 211 209 209 212 214 215 215 219 222
121 126 141 128 118 116 114 111 106 109 135 158 164 168 162 161 177 191 202 200 204 207 208 220 231 242 244 244 240 236 234 226 219 210 211 213 213 215 218 220 222 225 227
133 140 123 116 118 116 110 103 117 100 110 114 153 178 168 168 176 187 200 212 215 212 215 216 222 229 236 236 240 237 235 228 221 213 213 214 216 218 221 225 227 229 229
144 132 122 124 113 111 111 114 89 64 91 96 135 185 177 171 175 177 186 205 230 221 214 215 225 226 236 242 249 246 236 227 222 218 215 215 217 220 222 227 230 232 233
129 120 132 134 127 126 127 102 82 54 64 32 294 248 206 183 178 163 179 222 236 215 207 212 217 228 241 239 245 247 239 230 227 220 214 214 215 219 223 228 229 232 236
130 131 127 110 123 125 121 89 68 53 38 3 350 340 240 215 182 168 189 234 226 206 218 231 232 221 238 249 248 247 241 232 228 220 213 211 209 208 210 220 225 230 235
115 113 107 96 91 90 87 68 48 32 4 2 342 314 301 325 203 177 196 224 212 206 224 235 238 235 235 236 257 270 264 250 227 213 212 204 200 200 201 209 217 228 233
115 114 117 113 97 100 90 95 90 306 315 325 317 323 321 320 234 170 200 219 203 215 226 226 226 234 242 197 127 304 303 279 242 222 206 192 194 200 201 208 210 218 228
169 164 160 154 155 136 154 162 179 192 243 268 304 322 320 323 302 207 196 228 222 217 231 229 219 228 236 183 159 164 295 310 287 239 210 199 200 193 203 211 205 212 222
193 194 186 180 170 169 152 118 104 65 16 355 315 305 317 312 295 279 244 234 236 218 220 225 214 215 230 236 203 172 187 235 281 298 248 211 201 204 215 221 219 219 217
208 198 192 184 181 188 156 136 143 169 224 253 262 279 305 301 292 285 273 262 240 234 233 235 220 219 217 230 246 231 220 198 203 269 298 279 234 219 223 229 225 223 216
203 193 198 189 195 198 182 175 166 201 228 265 296 299 301 305 293 281 278 275 258 249 241 244 240 223 216 220 217 212 223 245 228 217 258 286 297 261 243 236 221 216 213
203 200 201 200 217 214 204 199 192 209 226 253 272 271 281 285 282 275 266 262 254 256 252 246 239 232 227 225 219 206 194 195 202 205 231 258 268 279 280 255 221 216 220
Height
1516 1518 1520 1522 1524 1525 1526 1527 1529 1530 1531 1532 1534 1535 1536 1537 1538 1538 1539 1540 1541 1541 1542 1542 1543 1543 1544 1544 1544 1545 1545 1545 1545 1545 1545 1545 1545 1545 1545 1545 1545 1545 1544
1514 1517 1519 1521 1523 1525 1526 1527 1529 1530 1531 1533 1534 1535 1536 1537 1538 1539 1540 1540 1541 1542 1542 1543 1543 1544 1544 1545 1545 1546 1546 1546 1546 1546 1546 1546 1546 1546 1546 1546 1546 1546 1545
1514 1516 1519 1521 1523 1524 1526 1527 1528 1530 1531 1533 1534 1535 1536 1537 1538 1539 1540 1541 1541 1542 1543 1544 1544 1545 1545 1546 1546 1546 1547 1547 1547 1547 1547 1547 1547 1547 1547 1547 1547 1546 1546
1513 1516 1518 1520 1522 1524 1526 1527 1528 1530 1531 1532 1534 1535 1536 1537 1538 1539 1540 1541 1542 1543 1543 1544 1545 1545 1546 1546 1547 1547 1547 1547 1547 1548 1548 1548 1548 1548 1548 1548 1547 1547 1547
1513 1515 1518 1520 1522 1524 1525 1527 1528 1529 1531 1532 1533 1534 1536 1537 1538 1539 1540 1541 1541 1542 1543 1544 1545 1545 1546 1547 1547 1547 1548 1548 1548 1548 1548 1548 1549 1548 1548 1548 1548 1547 1547
1513 1515 1517 1519 1521 1523 1525 1526 1528 1529 1530 1531 1533 1534 1535 1536 1537 1538 1539 1540 1541 1542 1543 1544 1544 1545 1546 1547 1547 1547 1548 1548 1548 1548 1549 1549 1549 1549 1549 1548 1548 1548 1547
1512 1514 1517 1519 1521 1523 1524 1526 1527 1529 1529 1530 1532 1533 1534 1535 1536 1537 1538 1539 1540 1541 1542 1543 1544 1545 1546 1546 1547 1547 1548 1548 1548 1548 1549 1549 1549 1549 1549 1548 1548 1547 1547
1512 1514 1516 1518 1520 1522 1523 1525 1526 1528 1529 1530 1531 1532 1533 1534 1535 1536 1537 1538 1539 1540 1541 1542 1543 1544 1545 1546 1546 1547 1547 1548 1548 1548 1548 1548 1549 1549 1548 1548 1548 1547 1547
1512 1513 1515 1517 1519 1520 1522 1524 1525 1527 1528 1529 1529 1531 1532 1533 1534 1535 1536 1537 1538 1539 1540 1541 1542 1543 1544 1544 1545 1546 1547 1547 1547 1547 1548 1548 1548 1548 1548 1548 1547 1547 1546
1511 1513 1514 1515 1517 1519 1520 1522 1524 1525 1527 1528 1528 1529 1530 1531 1532 1533 1534 1535 1536 1537 1538 1539 1540 1541 1542 1543 1544 1545 1545 1546 1546 1546 1547 1547 1547 1547 1547 1547 1547 1546 1546
1510 1512 1513 1514 1516 1517 1519 1521 1522 1524 1525 1526 1527 1528 1529 1530 1531 1531 1532 1533 1534 1535 1536 1537 1538 1539 1540 1541 1542 1543 1544 1544 1544 1545 1545 1546 1546 1546 1546 1546 1546 1545 1545
1508 1510 1512 1513 1515 1517 1518 1519 1521 1522 1524 1525 1525 1526 1527 1528 1529 1530 1530 1531 1532 1533 1534 1535 1536 1537 1538 1539 1540 1541 1541 1542 1542 1543 1544 1544 1544 1545 1545 1545 1544 1544 1543
1507 1508 1510 1512 1513 1515 1516 1517 1518 1520 1521 1523 1524 1524 1525 1526 1527 1528 1528 1529 1530 1531 1532 1533 1534 1534 1535 1536 1537 1538 1539 1539 1540 1540 1541 1542 1542 1543 1543 1543 1543 1542 1542
1507 1508 1509 1511 1512 1513 1514 1515 1517 1518 1519 1520 1521 1522 1523 1524 1525 1525 1526 1527 1528 1529 1529 1530 1531 1532 1533 1533 1534 1535 1536 1536 1537 1538 1538 1539 1540 1540 1541 1541 1540 1540 1540
1506 1507 1508 1510 1511 1512 1513 1514 1515 1516 1517 1518 1519 1520 1521 1522 1522 1523 1524 1524 1525 1526 1527 1528 1528 1529 1530 1530 1531 1532 1532 1533 1534 1535 1535 1536 1537 1538 1538 1538 1538 1538 1537
1506 1507 1507 1508 1509 1511 1512 1512 1513 1514 1515 1516 1517 1518 1519 1519 1520 1521 1521 1522 1523 1524 1524 1525 1526 1526 1527 1527 1528 1528 1529 1530 1531 1531 1532 1533 1534 1534 1535 1535 1535 1535 1535
1505 1505 1506 1507 1508 1509 1510 1511 1512 1512 1513 1514 1515 1516 1516 1517 1517 1518 1519 1519 1520 1521 1521 1522 1523 1523 1524 1524 1524 1525 1525 1526 1527 1528 1528 1529 1530 1530 1531 1531 1531 1531 1531
1504 1504 1505 1506 1507 1508 1508 1509 1510 1510 1511 1512 1513 1513 1514 1514 1515 1515 1516 1516 1517 1518 1518 1519 1519 1520 1520 1520 1521 1521 1521 1522 1523 1524 1525 1525 1526 1527 1527 1527 1528 1528 1527
1503 1504 1505 1505 1506 1506 1507 1507 1507 1508 1509 1509 1510 1510 1511 1512 1512 1513 1513 1514 1514 1514 1515 1515 1516 1516 1516 1516 1517 1517 1517 1518 1519 1520 1520 1521 1522 1522 1523 1524 1524 1524 1523
1502 1503 1503 1504 1504 1504 1504 1505 1505 1505 1506 1507 1507 1508 1508 1509 1509 1510 1510 1511 1511 1511 1512 1512 1513 1513 1513 1513 1513 1513 1513 1514 1514 1515 1516 1517 1518 1518 1519 1519 1519 1519 1519
1501 1501 1502 1502 1503 1503 1503 1502 1503 1503 1504 1504 1505 1505 1506 1506 1506 1506 1507 1507 1508 1508 1508 1509 1509 1510 1510 1510 1510 1509 1509 1510 1510 1511 1512 1513 1513 1514 1514 1514 1515 1515 1514
1500 1500 1501 1501 1501 1501 1501 1501 1501 1501 1501 1502 1502 1503 1503 1503 1504 1504 1504 1504 1504 1505 1505 1506 1506 1506 1506 1507 1506 1506 1506 1506 1506 1507 1507 1508 1509 1510 1510 1510 1510 1510 1510
1498 1499 1499 1499 1500 1499 1499 1498 1498 1499 1498 1499 1500 1500 1500 1500 1501 1501 1500 1501 1501 1502 1502 1502 1502 1502 1502 1503 1503 1504 1503 1502 1502 1503 1503 1504 1504 1505 1505 1506 1506 1506 1505
1497 1497 1498 1498 1498 1498 1497 1497 1496 1496 1496 1496 1496 1497 1497 1497 1497 1497 1497 1497 1497 1498 1498 1498 1498 1498 1499 1499 1499 1500 1500 1500 1500 1499 1499 1500 1500 1501 1501 1501 1501 1501 1501
1495 1495 1496 1496 1496 1495 1495 1495 1494 1494 1494 1494 1494 1494 1494 1494 1494 1494 1494 1494 1494 1494 1494 1494 1494 1494 1495 1495 1495 1495 1496 1496 1496 1496 1496 1496 1496 1496 1496 1496 1496 1496 1496
1493 1493 1494 1494 1494 1494 1493 1493 1492 1492 1492 1491 1491 1491 1491 1491 1491 1491 1490 1490 1490 1490 1490 1490 1490 1490 1490 1490 1491 1491 1491 1491 1492 1492 1492 1492 1492 1492 1492 1492 1492 1491 1491